FW7576 Weather Reports


time (UTC)temp
C
wind
direction
speed
KPH
gust
KPH
rain 1hr
cm
rain 24hr
cm
rain mn
cm
humidity
%
barometer
mb
20260901091543 24 233 1.6 6.4 0.00 0.41 0.00 86 1013.6
20260901090055 24 221 1.6 6.4 0.00 0.41 0.00 86 1013.6
20260901084547 23 224 4.8 8.0 0.00 0.41 0.00 86 1013.6
20260901083046 23 238 3.2 4.8 0.00 0.41 0.00 87 1013.5
20260901081546 23 251 1.6 6.4 0.00 0.41 0.00 87 1013.4
20260901080041 23 253 1.6 4.8 0.00 0.41 0.00 87 1013.5
20260901074547 23 255 1.6 3.2 0.00 0.41 0.00 87 1013.6
20260901073046 23 0 0.0 4.8 0.00 0.41 0.00 87 1013.5
20260901071553 23 0 0.0 6.4 0.00 0.41 0.00 87 1013.5
20260901070044 23 252 1.6 6.4 0.00 0.41 0.00 86 1013.7
20260901064543 24 267 3.2 8.0 0.00 0.41 0.00 86 1013.7
20260901063041 24 228 3.2 8.0 0.00 0.41 0.00 86 1013.7
20260901061546 24 228 1.6 6.4 0.00 0.41 0.00 86 1013.6
20260901060047 24 248 1.6 4.8 0.00 0.41 0.00 86 1013.5
20260901054543 24 237 4.8 9.7 0.00 0.41 0.00 85 1013.6
20260901053044 24 258 3.2 8.0 0.00 0.41 0.00 85 1013.5
20260901051546 24 257 3.2 9.7 0.00 0.41 0.00 86 1013.4
20260901050044 24 253 3.2 6.4 0.00 0.41 0.00 86 1013.5
20260901044545 24 256 0.0 6.4 0.00 0.41 0.41 86 1013.7
20260901043043 25 250 4.8 9.7 0.00 0.41 0.41 86 1013.8
20260901041607 25 254 3.2 9.7 0.00 0.41 0.41 86 1013.6
20260901040045 25 250 4.8 8.0 0.00 0.41 0.41 85 1013.7
20260901034540 25 252 4.8 9.7 0.00 0.41 0.41 85 1013.7
20260901033040 25 241 3.2 8.0 0.00 0.41 0.41 85 1013.9
20260901031544 25 257 3.2 8.0 0.00 0.41 0.41 85 1013.8
20260901030051 25 232 0.0 3.2 0.00 0.41 0.41 85 1013.8
20260901024543 25 252 0.0 8.0 0.00 0.41 0.41 84 1013.9
20260901023050 26 231 4.8 8.0 0.00 0.41 0.41 83 1013.9
20260901021549 26 264 4.8 8.0 0.00 0.41 0.41 83 1014.0
20260901020042 26 244 3.2 9.7 0.00 0.41 0.41 82 1013.7
20260901014549 26 252 1.6 4.8 0.00 0.41 0.41 81 1013.5
20260901013045 26 245 3.2 9.7 0.00 0.41 0.41 80 1013.6
20260901011542 27 278 3.2 11.3 0.00 0.41 0.41 79 1013.4
20260901010046 27 249 1.6 11.3 0.00 0.41 0.41 78 1013.0
20260901004551 27 205 3.2 14.5 0.00 0.41 0.41 77 1013.0
20260901003042 27 250 3.2 14.5 0.00 0.41 0.41 76 1013.0
20260901001545 27 258 3.2 9.7 0.00 0.41 0.41 76 1012.9
20260901000048 27 243 1.6 12.9 0.00 0.41 0.41 75 1012.9
20260831234545 27 223 3.2 19.3 0.00 0.41 0.41 74 1012.8
20260831233049 27 224 3.2 12.9 0.00 0.41 0.41 74 1012.7
20260831231547 28 224 3.2 17.7 0.00 0.41 0.41 74 1012.6
20260831230044 28 234 8.0 19.3 0.00 0.41 0.41 73 1012.7
20260831224551 28 265 6.4 20.9 0.00 0.41 0.41 74 1012.5
20260831223044 28 245 6.4 16.1 0.00 0.41 0.41 73 1012.3
20260831221540 28 220 3.2 17.7 0.00 0.41 0.41 72 1012.4
20260831220050 28 231 6.4 17.7 0.00 0.41 0.41 71 1012.4
20260831214546 28 268 6.4 22.5 0.00 0.41 0.41 70 1012.3
20260831213041 28 255 11.3 20.9 0.00 0.41 0.41 70 1012.7
20260831211548 28 235 6.4 14.5 0.00 0.41 0.41 71 1012.6
20260831210047 28 233 8.0 14.5 0.00 0.41 0.41 70 1012.1
20260831204543 28 253 4.8 12.9 0.00 0.41 0.41 70 1012.0
20260831203042 28 271 8.0 19.3 0.00 0.41 0.41 69 1012.2
20260831201541 28 258 6.4 14.5 0.00 0.41 0.41 67 1012.5
20260831200040 29 268 6.4 22.5 0.00 0.41 0.41 66 1012.2
20260831194603 30 262 9.7 19.3 0.00 0.41 0.41 63 1012.3
20260831193041 30 264 9.7 24.1 0.00 0.41 0.41 60 1012.2
20260831191544 30 212 8.0 30.6 0.00 0.41 0.41 61 1012.3
20260831190045 30 264 4.8 11.3 0.00 0.41 0.41 65 1012.2
20260831184541 29 233 8.0 19.3 0.00 0.41 0.41 66 1012.3
20260831183047 28 207 6.4 20.9 0.00 0.41 0.41 68 1012.5
20260831181544 28 238 9.7 19.3 0.00 0.41 0.41 66 1012.7
20260831180050 28 193 6.4 16.1 0.00 0.41 0.41 66 1012.7
20260831174550 28 246 8.0 24.1 0.00 0.41 0.41 65 1012.9
20260831173045 28 207 8.0 22.5 0.00 0.41 0.41 64 1012.8
20260831171546 28 219 4.8 19.3 0.00 0.41 0.41 66 1012.9
20260831170044 28 230 6.4 25.7 0.00 0.41 0.41 67 1013.0
20260831164549 27 229 11.3 20.9 0.00 0.41 0.41 67 1013.2
20260831163043 27 241 6.4 16.1 0.00 0.41 0.41 70 1013.1
20260831161549 26 259 4.8 19.3 0.00 0.41 0.41 73 1013.1
20260831160048 26 191 8.0 22.5 0.00 0.41 0.41 72 1013.2
20260831154610 25 195 6.4 17.7 0.00 0.41 0.41 73 1013.5
20260831153043 25 190 4.8 16.1 0.00 0.41 0.41 74 1013.6
20260831151542 25 203 3.2 9.7 0.00 0.41 0.41 76 1013.3
20260831150044 24 233 4.8 11.3 0.00 0.41 0.41 77 1013.5
20260831144542 23 222 3.2 11.3 0.00 0.41 0.41 78 1013.3
20260831143050 23 179 3.2 9.7 0.00 0.41 0.41 80 1013.4
20260831141551 23 206 3.2 11.3 0.00 0.41 0.41 81 1013.3
20260831140043 22 219 3.2 8.0 0.00 0.41 0.41 81 1013.3
20260831134545 22 198 4.8 9.7 0.00 0.41 0.41 83 1013.3
20260831133044 22 208 3.2 11.3 0.00 0.41 0.41 84 1013.3
20260831131551 22 176 4.8 9.7 0.00 0.41 0.41 84 1013.2
20260831130045 21 195 3.2 9.7 0.00 0.41 0.41 85 1013.1
20260831124544 21 221 3.2 11.3 0.00 0.43 0.41 86 1013.5
20260831123043 21 204 3.2 8.0 0.03 0.43 0.41 87 1013.5
20260831121545 21 0 1.6 9.7 0.03 0.43 0.41 87 1013.4
20260831120053 21 210 3.2 8.0 0.03 0.43 0.41 87 1013.5
20260831114543 21 182 3.2 9.7 0.05 0.48 0.41 87 1013.6
20260831113048 21 186 1.6 4.8 0.05 0.46 0.38 87 1013.7
20260831111545 21 182 1.6 3.2 0.15 0.46 0.38 87 1013.6
20260831110043 21 152 0.0 6.4 0.36 0.46 0.38 87 1013.6
20260831104541 20 188 1.6 3.2 0.36 0.81 0.36 87 1013.7
20260831103044 21 203 3.2 4.8 0.33 0.79 0.33 87 1014.2
20260831101544 21 0 0.0 4.8 0.23 0.69 0.23 87 1014.7
20260831100045 21 290 0.0 3.2 0.03 0.48 0.03 87 1014.8
20260831094541 21 0 0.0 0.0 0.00 0.66 0.00 87 1013.8
20260831093049 21 0 0.0 3.2 0.00 0.66 0.00 87 1013.6